Regional Weather Roundup
Issued by NWS

Home | Current Version | Previous Version | Graphics & Text | Print | Product List | Glossary Off
Versions: 1 2 3 4 5 6 7 8 9 10 11 12 13 14 15 16 17 18 19 20 21 22 23 24 25 26 27 28 29 30 31 32 33 34 35 36 37 38 39 40 41 42 43 44 45 46 47 48 49 50

270
ASUS43 KMKX 281621
RWRWI

WISCONSIN REGIONAL WEATHER ROUNDUP
NATIONAL WEATHER SERVICE MILWAUKEE/SULLIVAN WI
1100 AM CDT THU JUL 28 2016

NOTE: "FAIR" INDICATES FEW OR NO CLOUDS BELOW 12,000 FEET WITH NO
SIGNIFICANT WEATHER AND/OR OBSTRUCTIONS TO VISIBILITY.

WIZ001-002-006>008-014>016-023>028-281700-
NORTHWEST WISCONSIN

CITY           SKY/WX    TMP DP  RH WIND       PRES   REMARKS
SUPERIOR ARPT  CLOUDY    67  58  73 E13       30.10R
ASHLAND        SUNNY     69  59  70 N13       30.07R
HAYWARD        PTSUNNY   70  57  63 N13       30.06S
SIREN          CLOUDY    70  57  64 NE8       30.06S
CUMBERLAND     CLOUDY    68  57  68 N10       30.05R
RICE LAKE      PTSUNNY   69  58  69 N9        30.05R
CHETEK         CLOUDY    68  61  77 NE5       30.04R
LADYSMITH      CLOUDY    71  59  66 NE10      30.05S
EAU CLAIRE     CLOUDY    66  62  87 NE9       30.01R
MENOMONIE      CLOUDY    68  68  99 NE12      30.02R
NEW RICHMOND   CLOUDY    68  63  83 N7        30.04R
OSCEOLA        CLOUDY    67  67  99 N7        30.07R
$$

WIZ003>005-009-010-017-018-281700-
NORTH CENTRAL WISCONSIN

CITY           SKY/WX    TMP DP  RH WIND       PRES   REMARKS
MANITOWISH WTR CLOUDY    69  56  62 NE9       30.06S
ARBOR VITAE    CLOUDY    72  58  60 E8        30.05F
WOODRUFF       CLOUDY    72  58  60 E8        30.05F
RHINELANDER    CLOUDY    69  57  65 NE8       30.06R
EAGLE RIVER    SUNNY     71  54  56 E10       30.05S
LAND O LAKES   MOSUNNY   70  55  58 NE10G16   30.07S
PHILLIPS       MOSUNNY   68  56  65 NE9       30.04S
TOMAHAWK       CLOUDY    67  56  68 E7        30.05S
MEDFORD        DRIZZLE   62  62 100 NE5       30.03S
MERRILL        CLOUDY    63  62  96 E3        30.04S
$$

WIZ029-030-035-036-043>047-281700-
CENTRAL WISCONSIN

CITY           SKY/WX    TMP DP  RH WIND       PRES   REMARKS
WAUSAU         CLOUDY    62  60  93 NE8       30.01S
MOSINEE        CLOUDY    61  61 100 NE9       30.02S
MARSHFIELD     LGT RAIN  63  60  90 E9        30.00R
STEVENS POINT  CLOUDY    62  60  92 E8G18     30.00S
WAUPACA        CLOUDY    71  64  77 NE7       29.99S
WAUTOMA        CLOUDY    67  62  84 E12       29.98R
WISC RAPIDS    CLOUDY    65  59  81 E9        29.99S
CAMP DOUGLAS   CLOUDY    66  64  94 E9        29.95
$$

WIZ011>013-019>022-031-037>040-048>050-281700-
NORTHEAST WISCONSIN

CITY           SKY/WX    TMP DP  RH WIND       PRES   REMARKS
ANTIGO         CLOUDY    60  56  87 E5        30.05S
SHAWANO        CLOUDY    64  61  90 NE8       30.03R
OCONTO         CLOUDY   N/A N/A N/A N5        30.01S
STURGEON BAY   CLOUDY    65  62  90 NE7       30.02R
GREEN BAY      CLOUDY    69  66  90 NE15      29.99S
MANITOWOC      CLOUDY    70  62  76 NE12G18   29.98R
APPLETON       PTSUNNY   68  57  68 NE12G17   29.98R
CLINTONVILLE   CLOUDY    64  61  88 NE7       30.01S
OSHKOSH        CLOUDY    68  62  81 NE12      29.97S
$$

WIZ032>034-041-042-053>061-281700-
SOUTHWEST WISCONSIN

CITY           SKY/WX    TMP DP  RH WIND       PRES   REMARKS
LA CROSSE      CLOUDY    69  67  93 N8        29.94R
SPARTA         CLOUDY    67  65  94 NE10      29.95R
VIROQUA        CLOUDY    70  70 100 E5        29.94R
BOSCOBEL       CLOUDY    77  70  79 NE6       29.92R
PRAIRIE DU CHI DRIZZLE   72  68  87 W9        29.92R
PLATTEVILLE    PTSUNNY   77  69  76 E3        29.92S
$$

WIZ056-057-062-063-064-067-068-281700-
SOUTH CENTRAL WISCONSIN

CITY           SKY/WX    TMP DP  RH WIND       PRES   REMARKS
REEDSBURG      CLOUDY    69  67  94 E8        29.94S
BARABOO/DELLS  CLOUDY    69  65  86 E12       29.95S
LONE ROCK      CLOUDY    73  69  87 E7        29.93S
MINERAL POINT  PTSUNNY   79  72  78 E7        29.93S HX  82
MADISON        PTSUNNY   74  68  81 E8        29.93R
MIDDLETON      CLOUDY    75  69  82 E7        29.94R
WATERTOWN      CLOUDY    73  72  98 NE7       29.93F
MONROE         PTSUNNY   75  70  83 N5        29.93R
JANESVILLE     PTSUNNY   82  70  65 E6        29.90S HX  86
$$

WIZ051-052-058>065-066-070>072-281700-
SOUTHEAST WISCONSIN

CITY           SKY/WX    TMP DP  RH WIND       PRES   REMARKS
MILWAUKEE      PTSUNNY   76  69  79 N10       29.93S
WAUKESHA       CLOUDY    73  66  78 E8        29.95S
MILWAUKEE/TIMM CLOUDY    73  64  73 NE7       29.95R
RACINE         MOSUNNY   77  69  76 NE6       29.94S
BURLINGTON     MOSUNNY   79  68  69 SE7       29.92S HX  81
KENOSHA        PTSUNNY   79  69  71 CALM      29.93R HX  81
FOND DU LAC    CLOUDY    73  63  70 E10       29.96S
SHEBOYGAN      CLOUDY    70  61  73 NE15      29.97R
WEST BEND      CLOUDY    70  63  78 NE12      29.95S
JUNEAU         CLOUDY    70  65  83 E9        29.96S
$$

LSZ147-162-281700-
LAKE SUPERIOR

STATION/POSITION TIME  TEMP    WIND        PRES    WAVE
                       AIR SEA DIR/SP/G            HT/PER
                 (UTC) (F)     (DEG/KT/KT) (MB)    (FT/S)
W MID LAKE BUOY  1550   61 60   40/ 14/ 16 1018.5R   2/ 3
DEVILS ISLAND    1600   62      60/ 17/ 18 1019.0R
PORT WING        1440   63      20/ 12/ 13 1018.6R
SAXON HARBOR     1500   67      30/  9/ 10 1017.6
$$

LMZ867-665-643>646-281700-
LAKE MICHIGAN

STATION/POSITION TIME  TEMP    WIND        PRES    WAVE
                       AIR SEA DIR/SP/G            HT/PER
                 (UTC) (F)     (DEG/KT/KT) (MB)    (FT/S)
CHAMBERS ISLAND  1500   67      50/  7/ 10 1016.3S
N MID LAKE BUOY  1550   66 69   50/  6/  8 1015.5S   1/ 3
NORTHPORT PIER   1500   67      50/  4/  7 1016.3F
SISTER BAY       1521   69      30/  4/  6   N/A
ALGOMA LAKESHORE 1513           50/  9/ 11   N/A
KEWAUNEE LAKESHO 1500   63      30/  4/  9 1015.1F
SHEBOYGAN LAKESH 1600   60     350/ 17/ 18 1014.8R
PORT WASHINGTON  1500   70      40/  8/ 12 1014.6F
ATWATER BUOY     1600   62 61  350/ 10/ 14 1015.2R
MILWAUKEE LAKESH 1610   70      10/ 11/ 13   N/A
S MID LAKE BUOY  1550   75 75  100/  4/  6 1012.1F   1
KENOSHA   LAKESH 1600   66      40/  5/  6 1012.9S
$$

TC  - TEMPERATURE IN CELSIUS
VSB - VISIBILITY IN STATUTE MILES
WCI - WIND CHILL INDEX
HX  - HEAT INDEX





USA.gov is the U.S. government's official web portal to all federal, state and local government web resources and services.